EW9221 Weather Reports


time (UTC)temp
C
wind
direction
speed
KPH
gust
KPH
rain 1hr
cm
rain 24hr
cm
rain mn
cm
humidity
%
barometer
mb
20260510100105 -17 0.0 0.0 0.00 0.46 0.00 1008.9
20260510094553 -17 0.0 0.0 0.00 0.46 0.00 1008.5
20260510093049 -17 0.0 0.0 0.00 0.46 0.00 1008.5
20260510091545 -17 0.0 0.0 0.00 0.46 0.00 1008.3
20260510090041 -17 0.0 0.0 0.00 0.46 0.00 1008.1
20260510084540 -17 0.0 0.0 0.00 0.46 0.00 1007.9
20260510083033 -17 0.0 0.0 0.00 0.46 0.00 1007.9
20260510081527 -17 223 0.0 0.0 0.00 0.46 0.00 1007.8
20260510080032 -17 223 0.0 1.6 0.00 0.46 0.00 1007.9
20260510074518 -17 220 0.0 0.0 0.00 0.46 0.00 1008.0
20260510073013 -17 220 0.0 0.0 0.00 0.46 0.00 1007.9
20260510071512 -17 220 0.0 0.0 0.00 0.46 0.00 1007.8
20260510070005 -17 220 0.0 0.0 0.00 0.46 0.00 1007.6
20260510064502 -17 220 0.0 0.0 0.00 0.46 0.00 1007.8
20260510063057 -17 220 0.0 1.6 0.00 0.46 0.00 1008.0
20260510061553 -17 220 0.0 1.6 0.00 0.46 0.00 1008.0
20260510060051 -17 220 0.0 0.0 0.00 0.46 0.00 1008.0
20260510054545 -17 220 0.0 1.6 0.00 0.48 0.00 1008.5
20260510053044 -17 220 0.0 1.6 0.00 0.48 0.00 1008.5
20260510051547 -17 223 0.0 1.6 0.00 0.48 0.00 1008.9
20260510050036 -17 223 0.0 0.0 0.00 0.48 0.00 1009.1
20260510044525 -17 223 0.0 1.6 0.00 0.48 0.00 1009.2
20260510043021 -17 222 0.0 1.6 0.03 0.48 0.00 1009.0
20260510041518 -17 225 0.0 0.0 0.03 0.48 0.00 1009.2
20260510040013 -17 225 0.0 1.6 0.03 0.61 0.48 1009.1
20260510034508 -17 225 0.0 0.0 0.03 0.61 0.48 1009.2
20260510033004 -17 200 0.0 0.0 0.00 0.58 0.46 1009.4
20260510031601 -17 224 0.0 0.0 0.00 0.58 0.46 1009.5
20260510030059 -17 224 0.0 0.0 0.00 0.58 0.46 1009.2
20260510024551 -17 224 0.0 0.0 0.00 0.61 0.46 1009.0
20260510023046 -17 223 0.0 0.0 0.00 0.61 0.46 1008.6
20260510021552 -17 229 0.0 0.0 0.00 0.61 0.46 1008.5
20260510020038 -17 229 0.0 0.0 0.00 0.61 0.46 1008.4
20260510014533 -17 103 0.0 0.0 0.00 0.61 0.46 1008.0
20260510013030 -17 9 0.0 0.0 0.00 0.61 0.46 1007.7
20260510011524 -17 330 0.0 0.0 0.00 0.61 0.46 1008.0
20260510010020 -17 330 0.0 0.0 0.00 0.61 0.46 1007.8
20260510004518 -17 330 0.0 0.0 0.03 0.61 0.46 1007.7
20260510003011 -17 269 0.0 0.0 0.03 0.61 0.46 1008.0
20260510001507 -17 243 0.0 0.0 0.03 0.61 0.46 1008.0
20260510000003 -17 243 0.0 0.0 0.05 0.61 0.46 1008.3
20260509234558 -17 243 0.0 0.0 0.03 0.58 0.43 1008.2
20260509233054 -17 313 0.0 0.0 0.03 0.58 0.43 1008.3
20260509231552 -17 313 0.0 0.0 0.03 0.58 0.43 1008.2
20260509230049 -17 53 0.0 4.8 0.00 0.56 0.41 1008.0
20260509224541 -17 65 1.6 4.8 0.00 0.56 0.41 1008.0
20260509223038 -17 30 1.6 6.4 0.00 0.56 0.41 1008.0
20260509221532 -17 19 6.4 9.7 0.00 0.56 0.41 1008.0
20260509220038 -17 32 6.4 11.3 0.00 0.56 0.41 1008.0
20260509214523 -17 31 9.7 16.1 0.00 0.56 0.41 1008.0
20260509213019 -17 351 9.7 16.1 0.00 0.56 0.41 1007.7
20260509211518 -17 342 11.3 19.3 0.00 0.56 0.41 1007.7
20260509210010 -17 342 11.3 20.9 0.03 0.56 0.41 1007.4
20260509204511 -17 314 11.3 17.7 0.05 0.56 0.41 1007.5
20260509203001 -17 315 4.8 14.5 0.05 0.56 0.41 1007.7
20260509201557 -17 331 3.2 12.9 0.08 0.56 0.41 1007.5
20260509200107 -17 299 3.2 11.3 0.08 0.53 0.38 1007.5
20260509194554 -17 340 0.0 1.6 0.28 0.51 0.36 1007.5
20260509193047 -17 212 0.0 1.6 0.33 0.51 0.36 1007.5
20260509191540 -17 236 0.0 0.0 0.30 0.48 0.33 1007.7
20260509190036 -17 294 0.0 1.6 0.28 0.46 0.30 1007.6
20260509184535 -17 219 0.0 11.3 0.05 0.23 0.08 1007.5
20260509183026 -17 119 6.4 8.0 0.00 0.18 0.03 1007.5
20260509181522 -17 101 4.8 8.0 0.00 0.18 0.03 1007.7
20260509180018 -17 105 1.6 6.4 0.00 0.18 0.03 1007.7
20260509174535 -17 61 4.8 8.0 0.00 0.18 0.03 1007.9
20260509173008 -17 111 6.4 9.7 0.00 0.18 0.03 1008.0
20260509171506 -17 82 3.2 6.4 0.00 0.18 0.03 1008.0
20260509170101 -17 146 3.2 9.7 0.00 0.18 0.03 1008.0
20260509164602 -17 100 3.2 6.4 0.00 0.18 0.03 1008.1
20260509163051 -17 150 6.4 12.9 0.00 0.18 0.03 1008.1
20260509161547 -17 105 1.6 4.8 0.00 0.18 0.03 1008.5
20260509160043 -17 135 0.0 3.2 0.00 0.18 0.03 1008.5
20260509154538 -17 103 0.0 11.3 0.00 0.18 0.03 1008.5
20260509153046 -17 93 3.2 11.3 0.00 0.18 0.03 1008.4
20260509151530 -17 67 1.6 8.0 0.00 0.18 0.03 1008.5
20260509150036 -17 98 1.6 4.8 0.00 0.18 0.03 1008.5
20260509144521 -17 86 0.0 1.6 0.00 0.18 0.03 1008.6
20260509143017 -17 39 0.0 4.8 0.00 0.18 0.03 1008.5
20260509141513 -17 38 0.0 1.6 0.00 0.18 0.03 1008.5
20260509140008 -17 114 0.0 3.2 0.00 0.18 0.03 1008.4
20260509134503 -17 335 0.0 3.2 0.00 0.18 0.03 1008.5
20260509133200 -17 313 0.0 4.8 0.00 0.18 0.03 1008.5
20260509131605 -17 298 1.6 6.4 0.00 0.18 0.03 1008.2
20260509130051 -17 343 0.0 4.8 0.00 0.18 0.03 1008.0
20260509124549 -17 311 0.0 4.8 0.00 0.18 0.03 1008.0
20260509123049 -17 21 0.0 0.0 0.00 0.18 0.03 1007.6
20260509121538 -17 342 0.0 3.2 0.00 0.18 0.03 1007.5
20260509120037 -17 294 0.0 8.0 0.00 0.18 0.03 1007.5
20260509114529 -17 336 0.0 4.8 0.00 0.18 0.03 1007.3
20260509113030 -17 0.0 0.0 0.00 0.18 0.03 1006.9
20260509111520 -17 0.0 0.0 0.00 0.18 0.03 1006.6
20260509110016 -17 0.0 0.0 0.00 0.18 0.03 1006.4
20260509104512 -17 0.0 0.0 0.00 0.18 0.03 1005.9
20260509103007 -17 0.0 0.0 0.00 0.18 0.03 1006.2
20260509101503 -17 0.0 0.0 0.00 0.18 0.03 1006.1